TimeCDT,TemperatureF,Dew PointF,Humidity,Sea Level PressureIn,VisibilityMPH,Wind Direction,Wind SpeedMPH,Gust SpeedMPH,PrecipitationIn,Events,Conditions,WindDirDegrees,DateUTC
12:56 AM,54.0,50.0,86,29.77,6.0,Calm,Calm,-,N/A,,Overcast,0,2012-10-23 05:56:00
1:56 AM,54.0,50.0,86,29.75,5.0,WSW,3.5,-,N/A,,Overcast,250,2012-10-23 06:56:00
2:07 AM,53.6,50.0,88,29.75,5.0,WSW,4.6,-,N/A,,Overcast,250,2012-10-23 07:07:00
2:30 AM,53.6,51.8,94,29.74,2.5,Calm,Calm,-,N/A,,Overcast,0,2012-10-23 07:30:00
2:56 AM,53.1,51.1,93,29.75,2.0,SW,4.6,-,N/A,,Overcast,220,2012-10-23 07:56:00
3:27 AM,53.6,51.8,94,29.74,2.0,WSW,4.6,-,N/A,,Overcast,240,2012-10-23 08:27:00
3:48 AM,53.6,51.8,94,29.74,3.0,SW,3.5,-,N/A,,Overcast,220,2012-10-23 08:48:00
3:56 AM,53.1,51.1,93,29.73,3.0,Calm,Calm,-,N/A,,Overcast,0,2012-10-23 08:56:00
5:56 AM,52.0,51.1,97,29.73,3.0,Calm,Calm,-,N/A,,Overcast,0,2012-10-23 10:56:00
6:56 AM,52.0,50.0,93,29.73,3.0,SSW,3.5,-,N/A,,Overcast,200,2012-10-23 11:56:00
7:34 AM,51.8,50.0,94,29.73,2.5,South,3.5,-,N/A,,Overcast,180,2012-10-23 12:34:00
8:22 AM,51.8,50.0,94,29.72,1.5,South,5.8,-,N/A,,Overcast,180,2012-10-23 13:22:00
8:39 AM,51.8,50.0,94,29.72,2.0,South,5.8,-,N/A,,Overcast,170,2012-10-23 13:39:00
10:15 AM,53.6,51.8,94,29.74,2.0,SSW,4.6,-,N/A,,Overcast,200,2012-10-23 15:15:00
10:43 AM,53.6,51.8,94,29.73,4.0,SSE,5.8,-,N/A,,Overcast,160,2012-10-23 15:43:00
10:52 AM,53.6,51.8,94,29.73,4.0,South,5.8,-,N/A,,Overcast,180,2012-10-23 15:52:00
10:56 AM,54.0,51.1,90,29.73,3.0,South,6.9,-,N/A,,Overcast,170,2012-10-23 15:56:00
11:56 AM,55.0,51.1,86,29.70,9.0,SSE,5.8,-,N/A,,Overcast,160,2012-10-23 16:56:00
12:56 PM,55.9,51.1,84,29.71,9.0,SSW,5.8,-,N/A,,Overcast,200,2012-10-23 17:56:00
1:56 PM,55.9,52.0,87,29.69,7.0,South,4.6,-,N/A,,Overcast,190,2012-10-23 18:56:00
2:56 PM,57.0,52.0,83,29.69,7.0,WSW,4.6,-,N/A,,Overcast,250,2012-10-23 19:56:00
3:56 PM,59.0,53.1,81,29.68,7.0,South,6.9,-,N/A,,Overcast,190,2012-10-23 20:56:00
4:14 PM,59.0,53.6,82,29.68,7.0,South,5.8,-,N/A,,Overcast,180,2012-10-23 21:14:00
4:56 PM,59.0,53.1,81,29.69,7.0,South,4.6,-,N/A,,Overcast,190,2012-10-23 21:56:00
5:56 PM,59.0,53.1,81,29.72,7.0,SW,3.5,-,N/A,,Overcast,220,2012-10-23 22:56:00
6:40 PM,57.2,51.8,82,29.72,8.0,WNW,6.9,-,N/A,,Overcast,290,2012-10-23 23:40:00
6:56 PM,55.9,52.0,87,29.73,8.0,WNW,4.6,-,N/A,,Scattered Clouds,290,2012-10-23 23:56:00
7:56 PM,48.9,48.0,97,29.75,5.0,Calm,Calm,-,N/A,,Clear,0,2012-10-24 00:56:00
8:24 PM,48.2,46.4,93,29.74,1.8,Calm,Calm,-,N/A,,Clear,0,2012-10-24 01:24:00
8:32 PM,51.8,50.0,94,29.74,3.0,Calm,Calm,-,N/A,,Clear,0,2012-10-24 01:32:00
8:48 PM,48.2,44.6,87,29.75,1.8,SW,4.6,-,N/A,,Clear,230,2012-10-24 01:48:00
8:56 PM,48.9,48.0,97,29.75,1.8,Calm,Calm,-,N/A,,Clear,0,2012-10-24 01:56:00
9:05 PM,48.2,48.2,100,29.75,0.5,Calm,Calm,-,N/A,Fog,Fog,0,2012-10-24 02:05:00
9:12 PM,46.4,46.4,100,29.75,0.2,Calm,Calm,-,N/A,Fog,Fog,0,2012-10-24 02:12:00
9:56 PM,44.1,43.0,96,29.76,0.2,Calm,Calm,-,N/A,Fog,Fog,0,2012-10-24 02:56:00
10:12 PM,44.6,44.6,100,29.76,0.2,Calm,Calm,-,N/A,Fog,Fog,0,2012-10-24 03:12:00
10:56 PM,46.0,45.0,96,29.78,0.2,SE,4.6,-,N/A,Fog,Fog,140,2012-10-24 03:56:00
11:48 PM,46.4,46.4,100,29.78,0.2,Calm,Calm,-,N/A,Fog,Fog,0,2012-10-24 04:48:00
11:56 PM,46.0,45.0,96,29.79,0.2,Calm,Calm,-,N/A,Fog,Fog,0,2012-10-24 04:56:00